User: anonymous   Login
Location: Pine Mountain Observatory
(43.7910°N, 120.9377°W)
Time: 02:06:52
(UTC-07:00)
Language:

IDEFIX/ARIANE 42P - Orbit

View from above orbital plane
View from above orbital plane
View from above satellite
View from above satellite

Ground track
Ground track

The orbit data is extracted from the following two-line orbital elements,

1 27422U 02021B   15144.12479593  .00000085  00000-0  49590-4 0  9991
2 27422 098.2586 174.6319 0011376 319.4369 040.5965 14.29183695678829
Epoch (UTC): 24 May 2015 02:59:42
Eccentricity: 0.0011376
inclination: 98.2586°
perigee height: 786 km
apogee height: 802 km
right ascension of ascending node: 174.6319°
argument of perigee: 319.4369°
revolutions per day: 14.29183695
mean anomaly at epoch: 40.5965°
orbit number at epoch: 67882

The dashed part of the orbit path shows where the satellite is in the earth's shadow,  

DLR